Overview Statistics Trail Chart Weather Telemetry Raw packets
 

This is the latest recevied weather packets stored in our database for station/object KJ7HSW. If no packets are shown the sender has not sent any weather packets the latest 10 day(s).

<< 7 8 9 10 11 12 13 >>
Time Temp. Humidity Pressure Rain* Wind** Luminosity Snow
1788551162 21.11° C 53% 1013.6 hPa 0 mm - 829 W/m² -
1788550856 20.56° C 53% 1013.6 hPa 0 mm - 801 W/m² -
1788550551 20° C 55% 1013.6 hPa 0 mm - 741 W/m² -
1788550248 20° C 57% 1013.7 hPa 0 mm - 764 W/m² -
1788549947 19.44° C 60% 1013.7 hPa 0 mm - 756 W/m² -
1788549643 19.44° C 59% 1013.8 hPa 0 mm - 768 W/m² -
1788549340 20° C 57% 1013.8 hPa 0 mm - 745 W/m² -
1788549036 20° C 59% 1013.8 hPa 0 mm - 741 W/m² -
1788548731 19.44° C 59% 1013.8 hPa 0 mm - 785 W/m² -
1788548428 18.89° C 61% 1013.7 hPa 0 mm - 852 W/m² -
1788548124 18.33° C 61% 1013.8 hPa 0 mm - 843 W/m² -
1788547818 18.33° C 61% 1013.9 hPa 0 mm - 341 W/m² -
1788547513 18.33° C 61% 1013.9 hPa 0 mm - 374 W/m² -
1788547208 17.78° C 64% 1013.9 hPa 0 mm - 655 W/m² -
1788546902 17.78° C 64% 1013.8 hPa 0 mm - 286 W/m² -
1788546598 17.22° C 65% 1013.8 hPa 0 mm - 281 W/m² -
1788546293 17.22° C 65% 1013.9 hPa 0 mm - 260 W/m² -
1788545993 17.22° C 65% 1013.8 hPa 0 mm - 239 W/m² -
1788545689 17.22° C 65% 1013.7 hPa 0 mm - 238 W/m² -
1788545383 17.22° C 66% 1013.8 hPa 0 mm - 263 W/m² -
1788545079 17.22° C 65% 1013.8 hPa 0 mm - 270 W/m² -
1788544779 17.78° C 65% 1013.8 hPa 0 mm - 265 W/m² -
1788544478 17.78° C 62% 1013.8 hPa 0 mm - 273 W/m² -
1788544178 17.78° C 63% 1014 hPa 0 mm - 679 W/m² -
1788543873 17.78° C 65% 1013.9 hPa 0 mm - 576 W/m² -

* Rain latest hour (hover to see other rain measurements)
** Current wind speed in m/s (hover to see current wind gust speed)